Location: El Bakhil
(32.7726°N, 5.5387°W)
Time: 05:34:44
(UTC+00:00)

Cosmos 1869 Rocket - Pass Details

Date: 03 March 2021
Orbit: 605 x 633 km, 82.5° (Epoch: 12 April)

Event Time Altitude Azimuth Distance (km) Brightness Sun altitude
Rises 19:46:25 0° 177° (S) 2,849 6.9 -18.7°
Reaches altitude 10° 19:48:38 10° 174° (S) 1,952 6.0 -19.2°
Maximum altitude 19:52:53 61° 94° (E) 693 3.4 -20.1°
Drops below altitude 10° 19:57:12 10° 14° (NNE) 1,979 6.1 -21.0°
Sets 19:59:27 0° 11° (N) 2,893 7.0 -21.5°
